Tracking 29892 objects as of 21-Nov-2024
HD Live streaming from Space Station
objects crossing your sky now

STARLINK-32353

Track STARLINK-32353 now!
10-day predictions
STARLINK-32353 is classified as:


NORAD ID: 61587
Int'l Code: 2024-187P
Perigee: 453.9 km
Apogee: 455.1 km
Inclination: 53.2 °
Period: 93.5 minutes
Semi major axis: 6825 km
RCS: Unknown
Launch date: October 18, 2024
Source: United States (US)
Launch site: AIR FORCE EASTERN TEST RANGE (AFETR)
Your satellite tracking list
Your tracking list is empty




NASA's NSSDC Master Catalog

Two Line Element Set (TLE):
1 61587U 24187P   24325.91668981  .00062982  00000-0  15735-2 0  9993
2 61587  53.1605 116.0832 0000915  65.2059 165.6426 15.39582258  6129
Source of the keplerian elements: AFSPC